Regional Weather Roundup
Issued by NWS

Home | Current Version | Previous Version | Graphics & Text | Print | Product List | Glossary On
Versions: 1 2 3 4 5 6 7 8 9 10 11 12 13 14 15 16 17 18 19 20 21 22 23 24 25 26 27 28 29 30 31 32 33 34 35 36 37 38 39 40 41 42 43 44 45 46 47 48 49 50
000
ASUS43 KTOP 060508
RWRKS

WEATHER ROUNDUP FOR KANSAS
NATIONAL WEATHER SERVICE GOODLAND KS
1100 PM CST THU MAR 05 2015

NOTE:  "FAIR" INDICATES FEW OR NO CLOUDS BELOW 12,000 FEET WITH NO
SIGNIFICANT WEATHER AND/OR OBSTRUCTIONS TO VISIBILITY.

KSZ001>006-013>018-027>032-041>047-060600-
NORTHWEST KANSAS

CITY           SKY/WX    TMP DP  RH WIND       PRES   REMARKS
GOODLAND       CLEAR     29  20  69 W9        30.29S
HAYS           CLEAR     30  10  43 SW9       30.31F
HILL CITY      CLEAR     32  13  45 W7        30.29S
RUSSELL        CLEAR     30  14  51 S10       30.30F WCI  21
$$

KSZ061>065-074>080-084>089-060600-
SOUTHWEST KANSAS

CITY           SKY/WX    TMP DP  RH WIND       PRES   REMARKS
DODGE CITY     PTCLDY    29  15  56 S7        30.34F
ELKHART          N/A     31  18  59 S8          N/A
GARDEN CITY    CLEAR     27  19  72 S8        30.32S
GREAT BEND     CLEAR     32  18  55 S13       30.34F WCI  22
LIBERAL        CLEAR     28  18  64 SW9       30.35S
PRATT          MOCLDY    30  23  74 S12       30.38F WCI  21
$$

KSZ066>073-081>083-090>101-060600-
SOUTHEAST KANSAS

CITY           SKY/WX    TMP DP  RH WIND       PRES   REMARKS
CHANUTE        CLEAR     24  18  77 S7        30.49F
COFFEYVILLE    CLEAR     28  18  66 S5        30.51F
HUTCHINSON     CLEAR     32  21  64 S13       30.40S WCI  22
MEDICINE LODGE   N/A     30  22  72 SE5       30.41S
NEWTON         CLEAR     32  18  55 S15       30.41F WCI  22
PARSONS        CLEAR     28  18  66 SE5       30.51S
WICHITA INTL   PTCLDY    31  20  63 S10       30.43F WCI  22
WICHITA JABRA  PTCLDY    32  19  58 S15       30.42F WCI  22
WICHITA MCCONL PTCLDY    31  19  60 S13       30.43F WCI  22
WINFIELD       MOCLDY    32  19  58 S9        30.48S
$$

KSZ007>012-019>026-033>040-048>060-102>105-060600-
NORTHEAST KANSAS

CITY           SKY/WX    TMP DP  RH WIND       PRES   REMARKS
CONCORDIA      CLEAR     32  16  51 S17       30.31F WCI  21
EMPORIA        CLEAR     26  18  71 S13       30.41F WCI  15
LAWRENCE       CLEAR     22  14  71 SE8       30.46F
MANHATTAN      CLEAR     27  17  66 CALM      30.39F
MARYSVILLE     CLEAR     28  18  64 S10       30.35F WCI  19
OLATHE IND     CLEAR     23  13  65 S10       30.46F WCI  12
OLATHE EXE     CLEAR     24  14  65 S12       30.45F WCI  13
SALINA         CLEAR     31  17  56 S9        30.37S
TOPEKA BILLARD CLEAR     27  13  55 SE10      30.44F WCI  17
TOPEKA FORBES  CLEAR     27  14  58 SE13      30.42F WCI  16
$$



USA.gov is the U.S. government's official web portal to all federal, state and local government web resources and services.